Wind_Speed
15 14 14 14 15 15 16 15 16 15 16 16 16 16 17 18 18 18 17 18 18 18 18 18 18 18 19 19 19 19 19 20 20 20 20 21 22 23 23 24 23 23 23
15 15 16 16 16 16 15 15 16 15 16 16 16 16 17 18 18 18 18 18 17 17 17 17 17 18 18 19 18 18 18 18 18 18 19 19 20 21 22 23 22 22 22
16 16 16 16 16 16 15 16 16 16 17 17 17 17 17 17 18 18 18 17 16 16 15 15 15 16 17 17 17 17 17 17 17 17 17 18 19 20 21 21 22 21 22
16 16 15 16 16 16 16 17 17 17 17 18 18 18 17 17 17 17 16 15 13 13 13 13 14 15 16 16 16 16 16 17 16 17 17 17 18 18 19 19 20 20 21
16 16 16 17 16 16 17 18 18 18 19 19 19 18 17 17 17 16 14 13 13 12 13 13 12 13 14 15 15 15 15 15 16 16 16 17 17 18 18 18 19 19 19
17 18 18 18 17 17 18 18 18 19 19 19 18 18 18 17 16 15 14 13 13 12 12 12 12 12 12 13 14 15 15 15 16 16 16 17 17 17 18 18 18 19 19
20 19 19 18 18 19 19 19 19 19 19 19 19 18 18 17 16 15 14 13 13 12 12 11 12 12 12 12 13 14 15 15 16 16 17 17 16 16 16 17 17 17 17
19 19 19 19 19 19 19 19 20 20 19 19 19 19 18 17 15 15 14 13 13 12 12 13 12 12 12 13 13 13 14 15 15 16 16 15 15 15 15 15 15 15 15
20 20 20 20 19 19 19 20 20 20 20 19 19 19 18 16 16 14 13 13 13 13 13 13 12 12 12 12 12 13 13 13 14 15 15 15 15 14 14 14 14 14 13
21 20 20 20 20 20 20 20 20 20 20 19 19 18 17 16 16 15 14 13 13 13 13 13 13 13 13 13 13 13 13 13 13 13 14 14 14 14 14 13 13 13 13
21 21 20 21 21 20 20 19 20 19 19 19 18 18 17 16 15 15 14 13 14 14 14 13 13 13 13 13 12 12 12 12 12 12 13 13 13 14 14 13 13 13 12
22 22 21 21 21 21 20 20 19 19 19 19 18 18 17 17 16 15 14 14 14 15 14 14 13 13 12 13 13 12 12 12 11 11 12 12 13 13 13 13 13 12 11
22 22 21 22 21 21 21 21 20 20 20 20 19 18 18 18 16 16 15 15 15 15 14 14 13 13 13 13 13 13 12 12 12 11 11 11 12 11 11 11 11 11 11
23 23 22 21 21 21 21 21 20 20 20 20 19 18 18 17 16 16 16 16 15 15 15 14 14 14 13 13 13 13 13 12 12 12 12 11 11 11 11 11 11 10 10
23 23 22 22 22 21 22 21 21 21 21 20 19 19 18 18 17 16 16 17 17 16 16 16 15 15 14 14 14 14 13 13 13 13 13 12 12 12 11 11 11 11 10
22 22 22 22 22 23 22 21 20 20 20 19 19 19 19 18 18 18 18 18 17 17 17 17 17 16 16 16 15 14 14 14 14 14 14 13 13 12 12 11 11 11 11
23 23 23 23 23 23 23 22 21 20 20 20 19 19 19 18 18 17 17 17 17 17 17 18 18 17 17 17 16 16 16 16 15 15 15 14 14 13 13 13 13 13 12
23 23 23 23 22 22 22 22 22 21 20 19 19 18 17 17 18 17 17 17 17 17 17 17 17 17 17 18 18 18 17 17 17 16 16 16 15 15 14 14 14 13 13
23 23 22 22 22 22 22 21 21 20 20 19 19 18 18 18 19 18 18 17 17 17 17 17 17 17 17 17 17 18 18 19 18 18 17 16 15 14 14 14 14 14 14
23 23 22 22 22 22 21 21 21 20 20 20 19 19 19 19 19 19 19 19 19 18 19 19 18 18 18 18 17 17 18 18 17 17 16 16 16 16 15 15 15 15 14
23 22 22 21 21 20 20 20 20 20 20 20 21 21 21 20 20 20 20 20 20 20 20 20 20 19 19 19 19 18 18 18 18 18 17 16 15 16 16 16 16 15 15
23 22 21 20 20 20 20 20 20 20 21 21 21 22 21 21 21 21 21 21 21 21 21 21 21 21 21 20 20 20 19 19 18 18 17 17 17 16 17 17 16 16 16
22 22 21 21 21 21 21 20 19 19 20 20 21 21 21 21 21 21 21 22 22 21 21 21 21 20 21 21 20 20 18 17 17 17 18 18 18 17 18 18 18 17 18
23 22 22 22 22 21 20 21 20 19 19 20 20 20 20 21 21 21 22 22 22 22 22 22 21 21 20 19 19 18 18 17 17 17 17 17 17 18 18 18 18 18 18
23 22 22 22 21 20 20 20 20 19 19 19 19 20 20 20 20 21 22 22 22 22 22 22 22 22 21 20 19 18 17 17 17 17 17 17 17 18 18 18 19 18 18
23 22 22 22 21 20 20 20 20 20 19 19 19 20 19 20 20 21 21 22 22 23 23 22 22 21 20 19 19 19 18 18 17 16 17 17 18 19 19 19 19 19 19
Wind_Direction
296 297 297 295 297 300 300 301 303 304 305 305 303 301 300 298 296 292 292 288 283 281 278 276 276 275 276 277 277 277 277 277 275 273 272 271 269 269 269 269 268 267 268
294 294 294 295 298 300 301 301 303 305 306 307 306 305 305 303 299 295 294 291 287 284 280 277 275 276 275 277 278 277 278 278 277 275 274 274 273 271 270 270 271 270 269
294 295 294 293 294 295 297 300 303 305 307 307 306 307 305 305 303 301 296 293 292 289 285 280 277 276 276 277 277 277 277 278 277 276 277 277 275 274 272 272 271 269 270
290 293 294 295 293 293 295 298 302 304 304 305 305 306 305 305 304 303 299 294 293 292 291 287 284 279 276 277 276 275 277 279 278 277 278 279 278 275 272 272 271 270 271
286 289 291 294 296 295 295 296 298 300 302 305 306 304 305 304 302 300 294 292 290 291 291 288 288 286 280 279 278 276 278 281 280 280 281 279 279 276 273 272 271 270 273
282 285 287 288 292 294 294 297 297 298 300 303 306 306 304 303 301 298 291 288 288 288 289 288 289 287 286 285 280 279 279 280 281 284 283 279 278 278 277 273 272 271 273
280 282 283 284 287 290 293 295 295 297 298 300 303 306 304 300 297 298 293 288 283 282 284 286 289 288 288 290 290 287 284 282 285 286 283 282 279 280 279 276 275 272 272
280 282 285 285 287 291 293 294 294 294 296 296 299 301 303 302 298 294 289 285 282 280 280 284 287 287 290 288 288 291 291 290 290 289 287 284 283 283 281 280 277 277 274
277 280 284 287 288 290 291 291 293 294 293 292 295 297 299 298 298 293 288 285 280 280 279 282 285 287 287 287 287 289 292 292 292 292 290 286 285 284 283 281 277 279 281
276 278 281 285 288 290 291 291 290 293 292 292 291 292 292 291 292 290 287 281 279 280 281 282 283 285 285 285 285 286 289 290 291 293 293 290 287 284 283 282 278 275 279
275 277 279 283 286 289 291 290 290 290 291 291 290 286 287 288 288 288 285 280 279 279 280 280 280 282 284 286 285 284 289 292 295 294 294 292 290 286 283 280 276 273 272
276 278 279 282 283 286 288 290 290 290 289 288 286 283 280 283 282 281 281 279 278 279 282 283 281 281 283 283 283 283 287 289 291 292 293 292 292 291 287 281 275 270 270
275 277 277 280 281 283 285 286 286 287 286 287 283 281 279 278 276 275 280 280 278 277 279 280 280 279 278 279 279 281 283 284 286 292 296 295 290 287 287 285 278 272 267
274 277 278 281 283 285 285 284 285 284 285 285 283 281 279 277 276 275 276 278 278 278 277 278 278 273 274 278 280 280 281 282 286 287 290 292 290 287 285 285 276 266 264
275 278 281 283 286 285 287 286 283 282 282 281 280 279 277 275 273 273 274 275 276 277 275 274 275 271 271 274 279 284 285 285 286 286 287 287 287 285 285 284 277 269 262
277 280 282 282 283 285 286 283 282 282 282 280 280 279 275 272 271 271 273 274 273 274 274 274 272 270 269 270 273 278 283 284 284 285 282 282 284 281 279 278 275 270 265
276 278 280 281 283 283 282 280 279 280 282 282 281 277 274 272 271 272 272 273 272 272 272 272 271 269 267 267 269 272 277 280 282 281 280 280 281 278 277 276 275 274 268
275 277 278 280 281 281 281 280 279 279 279 279 278 276 273 271 270 271 270 271 272 273 274 273 272 270 268 267 268 270 274 275 276 277 276 276 276 275 274 275 272 273 269
274 277 278 279 280 280 279 278 277 276 275 275 275 272 271 270 270 270 271 272 271 271 272 274 273 272 272 270 269 271 273 274 274 274 274 273 271 271 271 272 271 269 266
275 276 278 279 280 279 279 278 276 274 272 272 271 271 270 270 270 269 269 270 269 268 269 271 271 271 272 272 271 271 273 274 274 274 273 271 268 268 269 271 270 267 262
274 276 277 278 280 279 278 278 277 274 271 270 270 271 270 269 268 268 268 269 268 266 267 270 272 270 269 270 271 272 273 274 274 272 269 268 266 264 264 267 267 265 263
274 275 277 277 278 279 278 278 278 276 272 271 270 269 271 269 267 267 267 268 267 267 267 268 269 269 268 267 269 271 272 274 272 268 264 263 263 261 262 263 265 267 267
271 272 274 275 277 279 279 279 277 277 274 270 270 269 270 270 268 266 266 266 265 264 264 264 267 268 267 267 268 269 270 269 268 266 263 261 262 262 261 261 264 267 268
269 270 271 274 277 277 278 280 279 276 275 273 273 272 272 271 270 268 266 266 265 264 263 262 265 267 267 267 267 266 264 265 267 267 264 262 261 261 261 262 265 265 265
268 268 269 271 273 276 279 281 279 277 276 275 274 274 272 270 271 270 269 267 267 265 263 262 264 265 266 264 261 262 264 266 267 265 263 263 264 263 263 265 265 266 265
267 267 268 269 272 274 276 279 279 278 278 276 275 275 273 271 271 271 270 268 266 264 262 263 264 264 264 262 259 260 261 262 261 260 262 266 267 267 267 267 267 266 266
Height
5814 5812 5811 5809 5808 5806 5804 5801 5799 5796 5794 5791 5789 5786 5783 5781 5778 5776 5774 5772 5771 5770 5770 5769 5769 5769 5768 5768 5767 5766 5765 5764 5764 5764 5763 5762 5761 5761 5761 5761 5760 5760 5760
5810 5808 5807 5805 5803 5801 5799 5797 5795 5792 5789 5787 5784 5781 5779 5776 5773 5770 5768 5766 5765 5764 5763 5763 5762 5762 5762 5761 5761 5760 5759 5758 5758 5757 5756 5755 5754 5754 5753 5753 5753 5752 5752
5805 5803 5802 5800 5798 5797 5795 5793 5790 5788 5785 5782 5780 5777 5774 5771 5768 5765 5762 5761 5759 5758 5757 5756 5756 5756 5756 5755 5755 5754 5753 5752 5752 5751 5750 5749 5748 5747 5746 5746 5746 5746 5745
5800 5799 5797 5796 5794 5792 5790 5788 5786 5783 5781 5778 5775 5772 5768 5765 5762 5759 5757 5755 5754 5753 5752 5751 5751 5750 5750 5749 5749 5748 5747 5747 5746 5745 5744 5743 5742 5741 5740 5740 5739 5739 5738
5795 5794 5793 5792 5790 5788 5786 5783 5781 5779 5776 5773 5770 5766 5763 5760 5757 5754 5752 5751 5750 5748 5748 5747 5746 5745 5745 5744 5743 5743 5742 5741 5740 5740 5739 5738 5736 5735 5735 5734 5733 5733 5732
5790 5789 5788 5787 5785 5783 5781 5779 5776 5774 5771 5768 5765 5762 5758 5755 5752 5750 5748 5747 5746 5745 5744 5743 5742 5742 5741 5740 5739 5738 5737 5736 5736 5735 5733 5732 5731 5730 5729 5728 5727 5727 5726
5785 5784 5782 5781 5779 5778 5776 5773 5771 5768 5766 5763 5760 5757 5753 5750 5748 5746 5744 5743 5742 5741 5740 5740 5739 5738 5737 5736 5735 5734 5732 5731 5730 5729 5728 5727 5726 5725 5723 5722 5721 5720 5720
5779 5778 5777 5775 5774 5772 5770 5768 5766 5763 5760 5758 5755 5752 5749 5746 5744 5742 5740 5739 5738 5737 5737 5736 5735 5735 5734 5732 5731 5730 5728 5727 5725 5724 5723 5722 5721 5719 5718 5717 5716 5715 5715
5773 5772 5771 5769 5768 5766 5764 5762 5760 5757 5754 5752 5750 5747 5745 5742 5740 5738 5736 5735 5735 5734 5733 5732 5731 5731 5730 5729 5728 5727 5725 5723 5721 5720 5718 5717 5716 5715 5713 5712 5711 5710 5710
5767 5766 5765 5763 5762 5760 5758 5756 5754 5751 5749 5746 5744 5742 5740 5738 5736 5734 5733 5732 5731 5731 5730 5729 5728 5727 5726 5725 5724 5723 5721 5720 5718 5716 5714 5713 5711 5710 5709 5708 5707 5706 5706
5760 5759 5758 5757 5756 5754 5752 5750 5748 5745 5743 5741 5739 5737 5735 5734 5732 5731 5729 5728 5727 5726 5726 5725 5724 5723 5722 5721 5720 5719 5718 5716 5714 5712 5710 5709 5707 5706 5704 5703 5703 5702 5702
5754 5753 5752 5750 5749 5747 5745 5743 5741 5739 5737 5735 5733 5732 5730 5729 5728 5726 5725 5724 5723 5722 5722 5721 5720 5719 5718 5717 5716 5715 5714 5713 5711 5709 5707 5705 5704 5702 5700 5699 5699 5698 5699
5747 5746 5745 5743 5742 5740 5739 5737 5735 5733 5731 5729 5728 5726 5725 5724 5723 5722 5721 5720 5719 5718 5717 5717 5716 5715 5714 5713 5712 5711 5710 5709 5707 5706 5704 5702 5700 5698 5697 5696 5695 5695 5695
5740 5739 5738 5736 5735 5734 5732 5730 5728 5726 5725 5723 5722 5721 5720 5719 5718 5717 5716 5715 5714 5713 5713 5712 5711 5711 5710 5710 5709 5707 5706 5705 5704 5702 5701 5699 5697 5696 5694 5693 5692 5692 5692
5732 5731 5730 5729 5728 5726 5725 5723 5721 5720 5718 5717 5716 5714 5714 5713 5712 5712 5711 5710 5709 5708 5707 5707 5707 5706 5706 5705 5705 5703 5702 5701 5700 5699 5697 5696 5694 5693 5692 5690 5689 5689 5690
5725 5724 5723 5722 5720 5719 5718 5716 5714 5713 5711 5710 5709 5708 5707 5707 5706 5706 5705 5704 5703 5703 5702 5702 5701 5701 5701 5700 5700 5699 5698 5697 5696 5695 5693 5692 5691 5690 5689 5688 5687 5687 5687
5717 5716 5715 5714 5713 5712 5710 5709 5708 5706 5705 5704 5703 5702 5701 5700 5700 5699 5699 5698 5697 5697 5696 5696 5696 5695 5695 5695 5694 5694 5693 5692 5691 5690 5689 5688 5687 5686 5686 5685 5684 5684 5684
5709 5708 5707 5706 5705 5704 5702 5701 5700 5699 5698 5697 5696 5695 5695 5694 5694 5693 5693 5692 5692 5691 5691 5690 5690 5689 5689 5688 5688 5688 5687 5686 5686 5685 5684 5683 5682 5682 5681 5681 5680 5680 5680
5701 5700 5699 5698 5697 5696 5695 5694 5692 5692 5691 5690 5690 5689 5688 5688 5688 5687 5687 5686 5686 5685 5685 5685 5684 5684 5683 5682 5682 5681 5681 5680 5680 5679 5678 5677 5677 5677 5676 5676 5676 5676 5676
5693 5692 5691 5690 5689 5688 5687 5686 5685 5684 5683 5683 5682 5682 5681 5681 5681 5681 5680 5680 5679 5679 5679 5678 5678 5677 5677 5676 5676 5675 5675 5674 5674 5673 5672 5672 5672 5672 5672 5671 5671 5671 5671
5685 5685 5684 5683 5682 5681 5679 5678 5677 5676 5675 5675 5675 5674 5674 5674 5674 5673 5673 5673 5672 5672 5672 5672 5671 5671 5670 5670 5670 5669 5668 5668 5667 5667 5666 5666 5666 5667 5667 5667 5666 5666 5666
5678 5677 5676 5675 5675 5673 5672 5671 5669 5669 5668 5667 5667 5667 5666 5666 5666 5666 5666 5666 5665 5665 5665 5665 5665 5664 5663 5663 5662 5662 5661 5661 5660 5660 5660 5660 5661 5661 5661 5661 5661 5661 5661
5670 5670 5669 5668 5667 5666 5665 5663 5662 5661 5660 5660 5660 5659 5659 5658 5658 5658 5658 5658 5658 5658 5658 5658 5657 5657 5656 5655 5655 5655 5654 5654 5654 5654 5654 5654 5655 5655 5655 5655 5656 5656 5656
5662 5662 5661 5661 5659 5658 5657 5656 5655 5654 5653 5653 5652 5652 5651 5651 5651 5650 5650 5650 5650 5651 5651 5651 5650 5650 5649 5648 5648 5648 5648 5648 5648 5648 5648 5649 5649 5650 5649 5649 5650 5650 5650
5654 5654 5653 5653 5652 5651 5650 5649 5647 5647 5646 5645 5645 5644 5644 5644 5643 5643 5643 5643 5643 5643 5643 5643 5643 5642 5642 5641 5642 5642 5642 5642 5642 5642 5642 5643 5643 5643 5643 5644 5644 5644 5644
5646 5645 5645 5645 5644 5644 5643 5642 5640 5639 5639 5638 5637 5637 5636 5636 5636 5635 5635 5635 5635 5635 5635 5636 5635 5635 5635 5635 5635 5635 5636 5636 5636 5636 5636 5637 5637 5637 5637 5637 5638 5638 5638